Weather History for Madisonville, KY

Change the Weather History Date:

Sunday, February 2, 2014

  Actual Average (KOWB) Record (KOWB)
Temperature  
Mean Temperature 36 °F -  
Max Temperature 42 °F 48 °F 63 °F (1953)
Min Temperature 29 °F 28 °F -21 °F (1951)
Degree Days  
Heating Degree Days 30    
Moisture  
Dew Point 33 °F    
Average Humidity 98    
Maximum Humidity 100    
Minimum Humidity 92    
Precipitation  
Precipitation 0.62 in - - ()
Sea Level Pressure  
Sea Level Pressure 30.13 in    
Wind  
Wind Speed 12 mph (North)    
Max Wind Speed 18 mph    
Max Gust Speed 24 mph    
Visibility 5 miles    
Events Rain , Snow    
Averages and records for this station are not official NWS values.
T = Trace of Precipitation, MM = Missing Value Source: NWS Daily Summary

Daily Weather History Graph

Daily Weather History Graph

Search for Another Location

Airport:

Trip Planner

Search our weather history database for the weather conditions in past years. The results will help you decide how hot, cold, wet, or windy it might be!

Date:

Astronomy

Feb. 02, 2014 Rise Set
Actual Time 6:51 AM CST 5:15 PM CST
Civil Twilight 6:24 AM CST 5:42 PM CST
Nautical Twilight 5:53 AM CST 6:13 PM CST
Astronomical Twilight 5:22 AM CST 6:44 PM CST
Moon 8:23 AM CST (2/2) 8:52 PM CST (2/2)
Length of Visible Light 11h 18m
Length of Day
10h 23m
Waxing Crescent, 11% of the Moon is Illuminated
Feb 2
Waxing Crescent
Feb 6
First Quarter
Feb 14
Full
Feb 22
Last Quarter
Mar 1
New

Hourly Weather History & Observations

Time (CST) Temp. Windchill Dew Point Humidity Pressure Visibility Wind Dir Wind Speed Gust Speed Precip Events Conditions
12:15 AM 42.1 °F 36.6 °F 42.1 °F 100% 29.96 in 3.0 mi NNW 9.2 mph - 0.01 in   Drizzle
12:35 AM 40.8 °F 34.1 °F 40.8 °F 100% 29.96 in 3.0 mi North 11.5 mph - 0.01 in Rain Heavy Rain
12:55 AM 39.7 °F 34.3 °F 39.7 °F 100% 29.95 in 3.0 mi North 8.1 mph - 0.03 in Rain Rain
1:15 AM 39.4 °F 34.5 °F 39.4 °F 100% 29.97 in 4.0 mi NNW 6.9 mph - N/A   Drizzle
1:35 AM 38.7 °F 32.4 °F 38.7 °F 100% 29.96 in 3.0 mi North 9.2 mph - 0.03 in Rain Rain
1:55 AM 38.5 °F 32.1 °F 38.5 °F 100% 29.98 in 5.0 mi North 9.2 mph - 0.05 in Rain Heavy Rain
2:15 AM 38.3 °F 31.9 °F 38.3 °F 100% 29.98 in 5.0 mi NNW 9.2 mph - 0.02 in Rain Light Rain
2:35 AM 37.6 °F 29.6 °F 37.6 °F 100% 29.99 in 4.0 mi NNW 12.7 mph 17.3 mph 0.05 in Rain Rain
2:55 AM 37.0 °F 28.9 °F 37.0 °F 100% 29.99 in 3.0 mi North 12.7 mph 19.6 mph 0.11 in   Overcast
3:15 AM 36.5 °F 27.8 °F 36.5 °F 100% 30.01 in 5.0 mi North 13.8 mph 19.6 mph 0.03 in Rain Light Rain
3:35 AM 36.5 °F 27.8 °F 36.1 °F 99% 30.01 in 5.0 mi North 13.8 mph - 0.03 in Rain Light Rain
3:55 AM 36.0 °F 29.0 °F 36.0 °F 100% 30.02 in 7.0 mi NNW 9.2 mph - 0.03 in Rain Light Rain
4:15 AM 36.0 °F 27.5 °F 36.0 °F 100% 30.04 in 4.0 mi NNW 12.7 mph - 0.04 in Rain Rain
4:35 AM 35.6 °F 27.1 °F 35.6 °F 100% 30.04 in 5.0 mi North 12.7 mph - 0.04 in Rain Rain
4:55 AM 35.6 °F 27.5 °F 35.6 °F 100% 30.05 in 5.0 mi North 11.5 mph 17.3 mph 0.04 in Rain Light Rain
5:15 AM 35.4 °F 26.4 °F 35.4 °F 100% 30.06 in 4.0 mi North 13.8 mph - 0.02 in Rain Light Rain
5:35 AM 35.1 °F 26.4 °F 34.9 °F 99% 30.06 in 4.0 mi North 12.7 mph - 0.04 in Rain Light Rain
5:55 AM 34.9 °F 26.6 °F 34.7 °F 99% 30.06 in 7.0 mi North 11.5 mph - 0.06 in Rain Light Rain
6:15 AM 34.9 °F 25.7 °F 34.7 °F 99% 30.09 in 7.0 mi North 13.8 mph - N/A Rain Light Rain
6:35 AM 34.7 °F 25.9 °F 34.3 °F 99% 30.08 in 7.0 mi North 12.7 mph - N/A Rain Light Rain
6:55 AM 34.7 °F 27.5 °F 34.3 °F 99% 30.08 in 10.0 mi NNE 9.2 mph - N/A   Overcast
7:15 AM 34.7 °F 26.4 °F 34.3 °F 99% 30.12 in 10.0 mi North 11.5 mph - N/A   Overcast
7:35 AM 34.7 °F 26.4 °F 34.2 °F 98% 30.12 in 10.0 mi North 11.5 mph - N/A   Overcast
7:55 AM 34.9 °F 27.1 °F 34.2 °F 97% 30.13 in 10.0 mi North 10.4 mph 16.1 mph N/A   Overcast
8:15 AM 34.7 °F 25.9 °F 33.8 °F 97% 30.17 in 10.0 mi North 12.7 mph - N/A   Overcast
8:35 AM 34.7 °F 25.5 °F 34.0 °F 97% 30.16 in 7.0 mi North 13.8 mph 18.4 mph N/A   Overcast
8:55 AM 34.7 °F 25.9 °F 33.8 °F 97% 30.16 in 7.0 mi North 12.7 mph - N/A   Overcast
9:15 AM 34.3 °F 25.5 °F 33.4 °F 97% 30.19 in 10.0 mi North 12.7 mph - N/A   Overcast
9:35 AM 34.2 °F 25.7 °F 33.1 °F 96% 30.18 in 10.0 mi NNE 11.5 mph - N/A   Overcast
9:55 AM 34.5 °F 25.3 °F 33.6 °F 97% 30.20 in 10.0 mi North 13.8 mph 18.4 mph N/A   Overcast
10:15 AM 34.7 °F 26.4 °F 33.3 °F 94% 30.20 in 10.0 mi North 11.5 mph - N/A   Overcast
10:35 AM 34.7 °F 25.9 °F 33.4 °F 95% 30.20 in 7.0 mi North 12.7 mph - N/A   Overcast
10:55 AM 34.7 °F 25.1 °F 33.4 °F 95% 30.18 in 7.0 mi North 15.0 mph - N/A   Overcast
11:15 AM 34.7 °F 25.1 °F 33.3 °F 94% 30.18 in 7.0 mi North 15.0 mph - N/A   Overcast
11:35 AM 35.1 °F 26.9 °F 33.8 °F 95% 30.16 in 7.0 mi NNE 11.5 mph - N/A   Overcast
11:55 AM 35.1 °F 25.5 °F 33.6 °F 94% 30.15 in 7.0 mi North 15.0 mph - N/A   Overcast
12:15 PM 34.9 °F 27.1 °F 33.1 °F 93% 30.20 in 7.0 mi North 10.4 mph - N/A   Overcast
12:35 PM 34.9 °F 27.1 °F 33.3 °F 94% 30.18 in 7.0 mi North 10.4 mph - N/A   Overcast
12:55 PM 34.7 °F 26.9 °F 33.1 °F 94% 30.18 in 7.0 mi North 10.4 mph - N/A   Light Drizzle
1:15 PM 34.7 °F 25.1 °F 32.7 °F 92% 30.17 in 7.0 mi North 15.0 mph - N/A   Overcast
1:35 PM 34.7 °F 25.5 °F 32.5 °F 92% 30.15 in 10.0 mi NNE 13.8 mph 17.3 mph N/A   Overcast
1:55 PM 34.2 °F 24.8 °F 32.9 °F 95% 30.14 in 5.0 mi North 13.8 mph - N/A Rain Rain
2:15 PM 33.6 °F 22.9 °F 32.5 °F 96% 30.14 in 4.0 mi North 17.3 mph - N/A   Overcast
2:35 PM 33.4 °F 23.5 °F 32.4 °F 96% 30.20 in 4.0 mi North 15.0 mph - N/A   Overcast
2:55 PM 33.1 °F 21.9 °F 32.4 °F 97% 30.17 in 1.8 mi North 18.4 mph 24.2 mph 0.01 in Snow Light Snow
3:15 PM 32.5 °F 22.3 °F 32.0 °F 98% 30.18 in 4.0 mi North 15.0 mph 21.9 mph 0.01 in Snow Light Snow
3:35 PM 32.4 °F 22.5 °F 32.0 °F 99% 30.20 in 3.0 mi North 13.8 mph - 0.02 in Snow Light Snow
3:55 PM 32.0 °F 23.6 °F 31.8 °F 99% 30.18 in 1.8 mi North 10.4 mph - 0.05 in Snow Light Snow
4:15 PM 32.0 °F 24.2 °F 32.0 °F 100% 30.17 in 2.5 mi NNE 9.2 mph - 0.01 in Snow Light Snow
4:35 PM 32.0 °F 21.2 °F 31.3 °F 97% 30.16 in 2.5 mi NNE 16.1 mph - 0.03 in Snow Light Snow
4:55 PM 31.5 °F 22.3 °F 31.1 °F 99% 30.17 in 2.0 mi NNE 11.5 mph - 0.06 in Snow Light Snow
5:15 PM 31.5 °F 21.8 °F 31.5 °F 100% 30.20 in 2.5 mi North 12.7 mph - 0.01 in Snow Light Snow
5:35 PM 31.3 °F 21.1 °F 31.3 °F 100% 30.19 in 1.5 mi NNE 13.8 mph - 0.02 in Snow Light Snow
5:55 PM 30.9 °F 21.2 °F 30.9 °F 100% 30.20 in 1.0 mi North 12.7 mph - 0.03 in Snow Snow
6:15 PM 30.7 °F 20.0 °F 30.7 °F 100% 30.18 in 2.5 mi North 15.0 mph - 0.01 in Snow Light Snow
6:35 PM 30.9 °F 20.7 °F 30.9 °F 100% 30.18 in 4.0 mi North 13.8 mph - 0.03 in Snow Light Snow
6:55 PM 30.9 °F 19.8 °F 30.7 °F 99% 30.15 in 4.0 mi NNE 16.1 mph - 0.04 in Snow Light Snow
7:15 PM 31.1 °F 20.5 °F 31.1 °F 100% 30.14 in 4.0 mi NNE 15.0 mph - 0.01 in Snow Light Snow
7:35 PM 31.1 °F 21.9 °F 30.9 °F 99% 30.15 in 5.0 mi NNE 11.5 mph - 0.01 in Snow Light Snow
7:55 PM 31.5 °F 22.3 °F 31.1 °F 99% 30.17 in 4.0 mi NNE 11.5 mph - 0.02 in Snow Light Snow
8:15 PM 31.5 °F 22.9 °F 31.1 °F 99% 30.17 in 5.0 mi NNE 10.4 mph - 0.01 in Snow Light Snow
8:35 PM 30.7 °F 21.4 °F 30.6 °F 99% 30.17 in 1.8 mi North 11.5 mph - 0.02 in Snow Light Snow
8:55 PM 30.2 °F 20.8 °F 30.2 °F 100% 30.19 in 1.2 mi North 11.5 mph - 0.04 in Snow Light Snow
9:15 PM 29.8 °F 20.3 °F 29.8 °F 100% 30.19 in 0.8 mi North 11.5 mph - 0.01 in Snow Snow
9:35 PM 29.7 °F 18.6 °F 29.7 °F 100% 30.18 in 1.0 mi North 15.0 mph - 0.03 in Snow Snow
9:55 PM 29.3 °F 18.6 °F 29.3 °F 100% 30.18 in 1.0 mi North 13.8 mph - 0.03 in Snow Light Snow
10:15 PM 29.3 °F 19.1 °F 29.3 °F 100% 30.16 in 0.8 mi NNE 12.7 mph - N/A Snow Snow
10:35 PM 29.3 °F 20.8 °F 29.3 °F 100% 30.15 in 0.8 mi NNE 9.2 mph - 0.01 in Snow Snow
10:55 PM 29.3 °F 19.1 °F 29.3 °F 100% 30.17 in 1.2 mi North 12.7 mph - 0.01 in Snow Light Snow
11:15 PM 29.3 °F 20.2 °F 29.3 °F 100% 30.17 in 1.5 mi North 10.4 mph - N/A Snow Light Snow
11:35 PM 29.3 °F 19.1 °F 29.3 °F 100% 30.17 in 1.5 mi North 12.7 mph - 0.01 in Snow Light Snow
11:55 PM 29.3 °F 20.2 °F 29.3 °F 100% 30.14 in 1.0 mi NNE 10.4 mph - 0.01 in Snow Light Snow